OneWeb SL0025

operational
NORAD ID: 45138 Int'l Des: 2020-008 Owner: ONEWEB Country: UK Constellation: oneweb
LEOCIRCULARPOLARONEWEB_TYPE

Über OneWeb SL0025

Beschreibung wird geladen...

Live-Position

3D-Globus wird geladen...

Nächste Überflüge

Höhenverlauf

Altitude vs Time

uPlot chart will show altitude changes over time

Zweizeiliger Elementsatz

1 45138U 20008H 25304.82941022 -.00001280 00000-0 -37025-2 0 9995
2 45138 87.8791 81.7646 0001225 104.7761 255.3502 13.10385379278662
Epoch: 31. Okt. 2025 • Age: 17 hours

Aktueller Status

Höhe 1234.4 km
Geschwindigkeit 7.24 km/s
Subsatellitenpunkt 82.62°N, 10.65°E
Startdatum 6. Feb. 2020
Alter 5.7 years
Typ internet

Technische Details

Klassifizierung Payload
Masse 148.00 kg
Trockenmasse 140.00 kg
Gesamtmasse 148.00 kg
Länge 1.30 m
Durchmesser 1.00 m
Spannweite 5.00 m
Form Trapezoid+2 pan
Hersteller ONEWUS
Bus-Typ ARROW
Phasenstatus In Orbit
Besitzer/Staat ONEWEB/UK

Große Konstellationen

Loading constellations...